Location: ??????
(41.3794°N, 22.5014°E)
Time: 07:57:25
(UTC+00:00)

COSMO-SKYMED 1 - Pass Details

Date: 30 November 2020
Orbit: 621 x 623 km, 97.9° (Epoch: 17 January)

Event Time Altitude Azimuth Distance (km) Brightness Sun altitude
Exits shadow 17:04:08 12° 0° (N) 1,904 4.9 -22.5°
Maximum altitude 17:08:03 48° 288° (WNW) 817 3.5 -23.2°
Drops below altitude 10° 17:12:13 10° 214° (SSW) 1,987 5.7 -24.0°
Sets 17:14:27 0° 208° (SSW) 2,889 6.5 -24.4°
